Time,TemperatureF,DewpointF,PressureIn,WindDirection,WindDirectionDegrees,WindSpeedMPH,WindSpeedGustMPH,Humidity,HourlyPrecipIn,Conditions,Clouds,dailyrainin,SoftwareType,DateUTC
2013-06-18 00:09:00,60.6,52.0,25.82,SSW,204,12.0,23.0,74,0.01,,,0.00,weatherlink.com 1.10,2013-06-18 06:09:00,
2013-06-18 00:24:00,60.4,52.0,25.82,South,170,12.0,25.0,73,0.02,,,0.01,weatherlink.com 1.10,2013-06-18 06:24:00,
2013-06-18 00:39:00,59.7,53.0,25.84,SW,218,10.0,19.0,78,0.01,,,0.01,weatherlink.com 1.10,2013-06-18 06:39:00,
2013-06-18 00:54:00,58.8,54.0,25.85,WSW,252,13.0,16.0,83,0.01,,,0.01,weatherlink.com 1.10,2013-06-18 06:54:00,
2013-06-18 01:09:00,58.3,53.0,25.88,ENE,61,8.0,11.0,83,0.01,,,0.01,weatherlink.com 1.10,2013-06-18 07:09:00,
2013-06-18 01:24:00,58.3,53.0,25.89,SSE,158,4.0,9.0,83,0.00,,,0.01,weatherlink.com 1.10,2013-06-18 07:24:00,
2013-06-18 01:39:00,58.1,53.0,25.89,SSW,198,2.0,8.0,84,0.00,,,0.01,weatherlink.com 1.10,2013-06-18 07:39:00,
2013-06-18 01:54:00,57.2,53.0,25.89,SSW,212,4.0,6.0,86,0.00,,,0.01,weatherlink.com 1.10,2013-06-18 07:54:00,
2013-06-18 02:09:00,56.8,53.0,25.89,SSE,148,5.0,7.0,86,0.00,,,0.01,weatherlink.com 1.10,2013-06-18 08:09:00,
2013-06-18 02:24:00,56.5,52.0,25.89,SSW,212,3.0,5.0,86,0.00,,,0.01,weatherlink.com 1.10,2013-06-18 08:24:00,
2013-06-18 02:39:00,56.7,52.0,25.89,WSW,250,2.0,5.0,85,0.00,,,0.01,weatherlink.com 1.10,2013-06-18 08:39:00,
2013-06-18 02:54:00,56.9,52.0,25.89,SW,215,1.0,6.0,84,0.00,,,0.01,weatherlink.com 1.10,2013-06-18 08:54:00,
2013-06-18 03:09:00,56.3,52.0,25.89,SE,134,0.0,1.0,85,0.00,,,0.01,weatherlink.com 1.10,2013-06-18 09:09:00,
2013-06-18 03:24:00,55.8,51.0,25.88,SE,136,0.0,0.0,85,0.00,,,0.01,weatherlink.com 1.10,2013-06-18 09:24:00,
2013-06-18 03:40:00,55.2,52.0,25.88,West,276,0.0,1.0,88,0.00,,,0.01,weatherlink.com 1.10,2013-06-18 09:40:00,
2013-06-18 03:55:00,54.9,51.0,25.87,West,278,0.0,1.0,87,0.00,,,0.01,weatherlink.com 1.10,2013-06-18 09:55:00,
2013-06-18 04:10:00,54.2,51.0,25.87,WNW,300,2.0,2.0,89,0.00,,,0.01,weatherlink.com 1.10,2013-06-18 10:10:00,
2013-06-18 04:25:00,53.0,50.0,25.88,WNW,299,0.0,1.0,90,0.00,,,0.01,weatherlink.com 1.10,2013-06-18 10:25:00,
2013-06-18 04:40:00,52.8,50.0,25.88,WNW,291,2.0,3.0,91,0.00,,,0.01,weatherlink.com 1.10,2013-06-18 10:40:00,
2013-06-18 04:55:00,52.3,50.0,25.88,WNW,285,3.0,4.0,92,0.00,,,0.01,weatherlink.com 1.10,2013-06-18 10:55:00,
2013-06-18 05:10:00,52.8,51.0,25.88,WNW,284,0.0,1.0,92,0.00,,,0.01,weatherlink.com 1.10,2013-06-18 11:10:00,
2013-06-18 05:25:00,52.8,50.0,25.89,WNW,284,0.0,1.0,91,0.00,,,0.01,weatherlink.com 1.10,2013-06-18 11:25:00,
2013-06-18 05:40:00,52.3,50.0,25.88,WNW,284,0.0,0.0,92,0.00,,,0.01,weatherlink.com 1.10,2013-06-18 11:40:00,
2013-06-18 05:55:00,53.1,51.0,25.88,NW,321,2.0,2.0,92,0.00,,,0.01,weatherlink.com 1.10,2013-06-18 11:55:00,
2013-06-18 06:10:00,54.6,52.0,25.88,NW,308,0.0,1.0,90,0.00,,,0.01,weatherlink.com 1.10,2013-06-18 12:10:00,
2013-06-18 06:25:00,56.0,53.0,25.88,NW,315,2.0,3.0,88,0.00,,,0.01,weatherlink.com 1.10,2013-06-18 12:25:00,
2013-06-18 06:40:00,57.1,54.0,25.88,NW,312,1.0,2.0,88,0.00,,,0.01,weatherlink.com 1.10,2013-06-18 12:40:00,
2013-06-18 06:55:00,58.1,53.0,25.88,WNW,288,2.0,4.0,84,0.00,,,0.01,weatherlink.com 1.10,2013-06-18 12:55:00,
2013-06-18 07:10:00,60.0,55.0,25.88,West,273,1.0,3.0,82,0.00,,,0.01,weatherlink.com 1.10,2013-06-18 13:10:00,
2013-06-18 07:25:00,61.0,54.0,25.88,West,264,2.0,5.0,78,0.00,,,0.01,weatherlink.com 1.10,2013-06-18 13:25:00,
2013-06-18 07:40:00,61.9,53.0,25.88,WSW,243,6.0,7.0,72,0.00,,,0.01,weatherlink.com 1.10,2013-06-18 13:40:00,
2013-06-18 07:55:00,62.9,54.0,25.88,SW,231,3.0,6.0,72,0.00,,,0.01,weatherlink.com 1.10,2013-06-18 13:55:00,
2013-06-18 08:10:00,64.6,52.0,25.88,SSW,197,4.0,9.0,65,0.00,,,0.01,weatherlink.com 1.10,2013-06-18 14:10:00,
2013-06-18 08:25:00,65.3,53.0,25.88,SW,219,7.0,11.0,64,0.00,,,0.01,weatherlink.com 1.10,2013-06-18 14:25:00,
2013-06-18 08:40:00,65.5,53.0,25.88,WSW,249,6.0,12.0,64,0.00,,,0.01,weatherlink.com 1.10,2013-06-18 14:40:00,
2013-06-18 08:55:00,66.0,52.0,25.88,SW,225,8.0,13.0,61,0.00,,,0.01,weatherlink.com 1.10,2013-06-18 14:55:00,
2013-06-18 09:10:00,66.8,52.0,25.88,SSE,166,12.0,13.0,60,0.00,,,0.01,weatherlink.com 1.10,2013-06-18 15:10:00,
2013-06-18 09:25:00,67.6,54.0,25.88,South,184,9.0,14.0,63,0.00,,,0.01,weatherlink.com 1.10,2013-06-18 15:25:00,
2013-06-18 09:40:00,68.7,54.0,25.87,SSW,194,9.0,12.0,60,0.00,,,0.01,weatherlink.com 1.10,2013-06-18 15:40:00,
2013-06-18 09:55:00,70.0,54.0,25.87,South,181,6.0,14.0,57,0.00,,,0.01,weatherlink.com 1.10,2013-06-18 15:55:00,
2013-06-18 10:10:00,71.2,54.0,25.86,SE,129,10.0,16.0,55,0.00,,,0.01,weatherlink.com 1.10,2013-06-18 16:10:00,
2013-06-18 10:25:00,71.3,53.0,25.86,SSE,167,10.0,15.0,53,0.00,,,0.01,weatherlink.com 1.10,2013-06-18 16:25:00,
2013-06-18 10:41:00,72.2,53.0,25.85,SSW,207,11.0,16.0,51,0.00,,,0.01,weatherlink.com 1.10,2013-06-18 16:41:00,
2013-06-18 10:56:00,72.7,54.0,25.85,ESE,116,14.0,23.0,52,0.00,,,0.01,weatherlink.com 1.10,2013-06-18 16:56:00,
2013-06-18 11:11:00,73.3,54.0,25.85,South,186,8.0,18.0,52,0.00,,,0.01,weatherlink.com 1.10,2013-06-18 17:11:00,
2013-06-18 11:26:00,74.4,53.0,25.84,SSE,166,10.0,18.0,48,0.00,,,0.01,weatherlink.com 1.10,2013-06-18 17:26:00,
2013-06-18 11:41:00,74.7,54.0,25.84,South,179,17.0,19.0,48,0.00,,,0.01,weatherlink.com 1.10,2013-06-18 17:41:00,
2013-06-18 11:56:00,75.7,55.0,25.84,South,172,15.0,19.0,48,0.00,,,0.01,weatherlink.com 1.10,2013-06-18 17:56:00,
2013-06-18 12:11:00,75.9,55.0,25.83,South,187,9.0,22.0,48,0.00,,,0.01,weatherlink.com 1.10,2013-06-18 18:11:00,
2013-06-18 12:26:00,76.4,53.0,25.82,SE,129,9.0,19.0,44,0.00,,,0.01,weatherlink.com 1.10,2013-06-18 18:26:00,
2013-06-18 12:41:00,77.4,54.0,25.82,ESE,123,12.0,21.0,45,0.00,,,0.01,weatherlink.com 1.10,2013-06-18 18:41:00,
2013-06-18 12:56:00,77.7,53.0,25.82,South,169,16.0,20.0,43,0.00,,,0.01,weatherlink.com 1.10,2013-06-18 18:56:00,
2013-06-18 13:11:00,77.9,52.0,25.81,SSE,148,16.0,21.0,41,0.00,,,0.01,weatherlink.com 1.10,2013-06-18 19:11:00,
2013-06-18 13:26:00,78.2,54.0,25.81,SSW,200,11.0,29.0,43,0.00,,,0.01,weatherlink.com 1.10,2013-06-18 19:26:00,
2013-06-18 13:41:00,78.9,55.0,25.80,SSE,162,16.0,21.0,44,0.00,,,0.01,weatherlink.com 1.10,2013-06-18 19:41:00,
2013-06-18 13:56:00,79.0,55.0,25.80,SW,230,10.0,23.0,43,0.00,,,0.01,weatherlink.com 1.10,2013-06-18 19:56:00,
2013-06-18 14:11:00,79.2,55.0,25.80,ESE,120,17.0,20.0,43,0.00,,,0.01,weatherlink.com 1.10,2013-06-18 20:11:00,
2013-06-18 14:26:00,79.6,54.0,25.80,SE,132,11.0,23.0,42,0.00,,,0.01,weatherlink.com 1.10,2013-06-18 20:26:00,
2013-06-18 14:41:00,79.7,54.0,25.79,SE,141,13.0,21.0,41,0.00,,,0.01,weatherlink.com 1.10,2013-06-18 20:41:00,
2013-06-18 14:56:00,80.1,55.0,25.78,SE,142,18.0,21.0,42,0.00,,,0.01,weatherlink.com 1.10,2013-06-18 20:56:00,
2013-06-18 15:11:00,81.0,56.0,25.78,SSE,164,18.0,23.0,42,0.00,,,0.01,weatherlink.com 1.10,2013-06-18 21:11:00,
2013-06-18 15:26:00,81.2,55.0,25.77,SSW,207,12.0,23.0,40,0.00,,,0.01,weatherlink.com 1.10,2013-06-18 21:26:00,
2013-06-18 15:41:00,81.9,55.0,25.77,SW,224,11.0,17.0,39,0.00,,,0.01,weatherlink.com 1.10,2013-06-18 21:41:00,
2013-06-18 15:56:00,81.0,54.0,25.77,South,179,13.0,23.0,39,0.00,,,0.01,weatherlink.com 1.10,2013-06-18 21:56:00,
2013-06-18 16:11:00,80.7,54.0,25.76,SSE,163,12.0,20.0,40,0.00,,,0.01,weatherlink.com 1.10,2013-06-18 22:11:00,
2013-06-18 16:26:00,79.6,54.0,25.76,SSE,148,13.0,20.0,42,0.00,,,0.01,weatherlink.com 1.10,2013-06-18 22:26:00,
2013-06-18 16:41:00,79.1,55.0,25.75,SSE,155,15.0,20.0,43,0.00,,,0.01,weatherlink.com 1.10,2013-06-18 22:41:00,
2013-06-18 16:56:00,79.1,55.0,25.75,SSE,165,15.0,21.0,43,0.00,,,0.01,weatherlink.com 1.10,2013-06-18 22:56:00,
2013-06-18 17:11:00,78.8,55.0,25.74,SE,129,14.0,19.0,44,0.00,,,0.01,weatherlink.com 1.10,2013-06-18 23:11:00,
2013-06-18 17:26:00,78.2,55.0,25.74,SE,143,10.0,19.0,45,0.00,,,0.01,weatherlink.com 1.10,2013-06-18 23:26:00,
2013-06-18 17:42:00,77.9,55.0,25.73,ESE,122,11.0,20.0,45,0.00,,,0.01,weatherlink.com 1.10,2013-06-18 23:42:00,
2013-06-18 17:57:00,77.8,55.0,25.73,SE,143,15.0,23.0,45,0.00,,,0.01,weatherlink.com 1.10,2013-06-18 23:57:00,
2013-06-18 18:12:00,76.9,54.0,25.73,SSE,163,12.0,22.0,46,0.00,,,0.01,weatherlink.com 1.10,2013-06-19 00:12:00,
2013-06-18 18:27:00,76.2,54.0,25.73,ESE,111,16.0,18.0,47,0.00,,,0.01,weatherlink.com 1.10,2013-06-19 00:27:00,
2013-06-18 18:42:00,75.5,54.0,25.73,SE,126,14.0,18.0,47,0.00,,,0.01,weatherlink.com 1.10,2013-06-19 00:42:00,
2013-06-18 18:57:00,74.7,54.0,25.72,ESE,120,12.0,18.0,49,0.00,,,0.01,weatherlink.com 1.10,2013-06-19 00:57:00,
2013-06-18 19:12:00,73.9,54.0,25.75,ESE,117,10.0,14.0,50,0.00,,,0.01,weatherlink.com 1.10,2013-06-19 01:12:00,
2013-06-18 19:27:00,73.3,54.0,25.76,SE,142,7.0,11.0,51,0.00,,,0.01,weatherlink.com 1.10,2013-06-19 01:27:00,
2013-06-18 19:42:00,73.0,54.0,25.76,ESE,109,7.0,12.0,51,0.00,,,0.01,weatherlink.com 1.10,2013-06-19 01:42:00,
2013-06-18 19:57:00,72.3,55.0,25.77,ESE,112,2.0,9.0,54,0.00,,,0.01,weatherlink.com 1.10,2013-06-19 01:57:00,
2013-06-18 20:12:00,66.3,49.0,25.83,WNW,296,13.0,25.0,54,0.00,,,0.01,weatherlink.com 1.10,2013-06-19 02:12:00,
2013-06-18 20:27:00,59.2,53.0,25.82,NW,319,16.0,23.0,80,0.02,,,0.03,weatherlink.com 1.10,2013-06-19 02:27:00,
2013-06-18 20:42:00,56.8,54.0,25.81,WNW,291,24.0,27.0,89,0.10,,,0.11,weatherlink.com 1.10,2013-06-19 02:42:00,
2013-06-18 20:57:00,56.7,54.0,25.82,WNW,283,19.0,30.0,90,0.16,,,0.17,weatherlink.com 1.10,2013-06-19 02:57:00,
2013-06-18 21:12:00,56.2,54.0,25.82,ENE,71,11.0,31.0,91,0.19,,,0.20,weatherlink.com 1.10,2013-06-19 03:12:00,
2013-06-18 21:27:00,56.1,54.0,25.82,North,356,7.0,25.0,94,0.18,,,0.21,weatherlink.com 1.10,2013-06-19 03:27:00,
2013-06-18 21:42:00,56.3,54.0,25.82,NNW,334,14.0,23.0,93,0.12,,,0.23,weatherlink.com 1.10,2013-06-19 03:42:00,
2013-06-18 21:57:00,56.6,54.0,25.84,WNW,299,5.0,18.0,92,0.08,,,0.25,weatherlink.com 1.10,2013-06-19 03:57:00,
2013-06-18 22:12:00,56.6,54.0,25.83,North,7,4.0,12.0,92,0.10,,,0.30,weatherlink.com 1.10,2013-06-19 04:12:00,
2013-06-18 22:27:00,56.0,54.0,25.81,NNE,14,3.0,12.0,94,0.14,,,0.35,weatherlink.com 1.10,2013-06-19 04:27:00,
2013-06-18 22:42:00,56.1,54.0,25.81,South,174,9.0,18.0,94,0.16,,,0.39,weatherlink.com 1.10,2013-06-19 04:42:00,
2013-06-18 22:57:00,56.8,54.0,25.79,SE,142,7.0,14.0,91,0.16,,,0.41,weatherlink.com 1.10,2013-06-19 04:57:00,
2013-06-18 23:12:00,57.3,54.0,25.80,South,169,6.0,13.0,89,0.11,,,0.41,weatherlink.com 1.10,2013-06-19 05:12:00,
2013-06-18 23:27:00,58.5,54.0,25.77,East,101,6.0,7.0,84,0.06,,,0.42,weatherlink.com 1.10,2013-06-19 05:27:00,
2013-06-18 23:42:00,58.3,55.0,25.75,NE,50,6.0,9.0,87,0.03,,,0.42,weatherlink.com 1.10,2013-06-19 05:42:00,
2013-06-18 23:57:00,58.7,54.0,25.76,SSW,198,2.0,6.0,85,0.01,,,0.42,weatherlink.com 1.10,2013-06-19 05:57:00,